ALK123 VCBI-VOMM

Flight info

Callsign ALK123
Flight time 1h 1m
Altitude 34000
Route ATETA1D/22 ATETA T4 TTR R457 TEGUT
Aircraft A320/M-SDE3FGHIRWY/LB1

Departure

Time 2026-04-24 11:36
Airport Bandaranaike International Colombo Airport (VCBI)

Arrival

Time 2026-04-24 12:38
Airport Chennai International Airport (VOMM)
Time Latitude Longitude Altitude Speed Heading
2026-04-24 11:25 7.17797 79.88664 27 ft 0 kts 37°
2026-04-24 11:26 7.17793 79.88661 27 ft 4 kts 37°
2026-04-24 11:26 7.17771 79.88645 27 ft 4 kts 32°
2026-04-24 11:26 7.17747 79.88631 27 ft 4 kts 22°
2026-04-24 11:26 7.17722 79.88625 27 ft 4 kts 345°
2026-04-24 11:27 7.17711 79.88631 27 ft 0 kts 307°
2026-04-24 11:30 7.17711 79.88630 27 ft 1 kts 307°
2026-04-24 11:30 7.17732 79.88602 27 ft 8 kts 307°
2026-04-24 11:30 7.17775 79.88546 27 ft 13 kts 307°
2026-04-24 11:31 7.17828 79.88475 27 ft 13 kts 307°
2026-04-24 11:31 7.17896 79.88435 28 ft 11 kts 24°
2026-04-24 11:31 7.17965 79.88487 27 ft 13 kts 37°
2026-04-24 11:31 7.18045 79.88550 27 ft 16 kts 37°
2026-04-24 11:32 7.18175 79.88646 27 ft 19 kts 37°
2026-04-24 11:32 7.18246 79.88702 27 ft 20 kts 38°
2026-04-24 11:32 7.18365 79.88793 27 ft 23 kts 37°
2026-04-24 11:32 7.18496 79.88892 28 ft 24 kts 37°
2026-04-24 11:33 7.18624 79.88992 28 ft 21 kts 38°
2026-04-24 11:33 7.18742 79.89081 28 ft 22 kts 37°
2026-04-24 11:33 7.18859 79.89169 27 ft 20 kts 37°
2026-04-24 11:33 7.18960 79.89246 27 ft 19 kts 37°
2026-04-24 11:34 7.19061 79.89324 27 ft 19 kts 37°
2026-04-24 11:34 7.19166 79.89403 27 ft 15 kts 34°
2026-04-24 11:34 7.19236 79.89374 27 ft 10 kts 306°
2026-04-24 11:34 7.19280 79.89313 27 ft 12 kts 305°
2026-04-24 11:35 7.19257 79.89247 27 ft 5 kts 217°
2026-04-24 11:35 7.19253 79.89243 27 ft 1 kts 217°
2026-04-24 11:35 7.19221 79.89219 27 ft 18 kts 217°
2026-04-24 11:35 7.18884 79.88958 30 ft 103 kts 217°
2026-04-24 11:36 7.18125 79.88381 29 ft 167 kts 217°
2026-04-24 11:36 7.17122 79.87616 467 ft 190 kts 217°
2026-04-24 11:36 7.16038 79.86780 1066 ft 198 kts 217°
2026-04-24 11:36 7.15213 79.85728 1756 ft 190 kts 250°
2026-04-24 11:37 7.15212 79.84396 2168 ft 202 kts 284°
2026-04-24 11:37 7.15757 79.82998 2390 ft 225 kts 291°
2026-04-24 11:37 7.16395 79.81497 2694 ft 245 kts 292°
2026-04-24 11:37 7.17426 79.80091 3292 ft 257 kts 326°
2026-04-24 11:38 7.19101 79.79469 4028 ft 264 kts 358°
2026-04-24 11:38 7.20902 79.79864 4719 ft 270 kts 28°
2026-04-24 11:38 7.22500 79.80850 5599 ft 271 kts 37°
2026-04-24 11:38 7.24004 79.82008 6391 ft 275 kts 40°
2026-04-24 11:39 7.25485 79.83233 7204 ft 278 kts 41°
2026-04-24 11:39 7.26966 79.84465 8012 ft 282 kts 41°
2026-04-24 11:39 7.28518 79.85728 8730 ft 286 kts 39°
2026-04-24 11:39 7.30092 79.86977 9430 ft 289 kts 39°
2026-04-24 11:40 7.31671 79.88210 10065 ft 293 kts 39°
2026-04-24 11:40 7.33339 79.89502 10442 ft 308 kts 37°
2026-04-24 11:40 7.35231 79.90625 10731 ft 323 kts 24°
2026-04-24 11:40 7.37406 79.91286 11255 ft 330 kts 10°
2026-04-24 11:41 7.39677 79.91452 11816 ft 334 kts
2026-04-24 11:41 7.42014 79.91511 12401 ft 338 kts
2026-04-24 11:41 7.44405 79.91573 12986 ft 341 kts
2026-04-24 11:41 7.46788 79.91635 13553 ft 344 kts
2026-04-24 11:42 7.49162 79.91698 13890 ft 347 kts
2026-04-24 11:42 7.51578 79.91761 13992 ft 347 kts
2026-04-24 11:42 7.53992 79.91822 14021 ft 347 kts
2026-04-24 11:42 7.56404 79.91886 14022 ft 347 kts
2026-04-24 11:43 7.58817 79.91949 14019 ft 347 kts
2026-04-24 11:43 7.61230 79.92014 14023 ft 347 kts
2026-04-24 11:43 7.63638 79.92078 14017 ft 347 kts
2026-04-24 11:43 7.66057 79.92142 14017 ft 347 kts
2026-04-24 11:44 7.68466 79.92207 14028 ft 347 kts
2026-04-24 11:44 7.70896 79.92274 14465 ft 350 kts
2026-04-24 11:44 7.73337 79.92342 14986 ft 352 kts
2026-04-24 11:44 7.75797 79.92410 15478 ft 355 kts
2026-04-24 11:45 7.78277 79.92477 15964 ft 358 kts
2026-04-24 11:45 7.80772 79.92545 16438 ft 361 kts
2026-04-24 11:45 7.83294 79.92613 16924 ft 364 kts
2026-04-24 11:45 7.85838 79.92647 17405 ft 368 kts 358°
2026-04-24 11:46 7.88391 79.92299 17859 ft 372 kts 350°
2026-04-24 11:46 7.90943 79.91804 18311 ft 375 kts 351°
2026-04-24 11:46 7.93512 79.91305 18740 ft 377 kts 351°
2026-04-24 11:46 7.96093 79.90805 19183 ft 378 kts 351°
2026-04-24 11:47 7.98682 79.90305 19647 ft 380 kts 351°
2026-04-24 11:47 8.01283 79.89804 20098 ft 381 kts 351°
2026-04-24 11:47 8.03894 79.89302 20549 ft 383 kts 351°
2026-04-24 11:47 8.06517 79.88797 21011 ft 384 kts 351°
2026-04-24 11:48 8.09147 79.88291 21391 ft 389 kts 351°
2026-04-24 11:48 8.11843 79.87775 21557 ft 399 kts 351°
2026-04-24 11:48 8.14583 79.87248 21918 ft 403 kts 351°
2026-04-24 11:48 8.17310 79.86720 22339 ft 405 kts 351°
2026-04-24 11:49 8.20089 79.86182 22775 ft 408 kts 351°
2026-04-24 11:49 8.22881 79.85647 23219 ft 409 kts 351°
2026-04-24 11:49 8.25684 79.85112 23607 ft 411 kts 351°
2026-04-24 11:49 8.28527 79.84570 23948 ft 413 kts 351°
2026-04-24 11:50 8.31322 79.84038 24271 ft 415 kts 351°
2026-04-24 11:50 8.34172 79.83499 24593 ft 418 kts 351°
2026-04-24 11:50 8.37039 79.82958 24915 ft 420 kts 351°
2026-04-24 11:50 8.39913 79.82414 25236 ft 422 kts 351°
2026-04-24 11:51 8.42809 79.81864 25545 ft 425 kts 351°
2026-04-24 11:51 8.45723 79.81311 25837 ft 427 kts 351°
2026-04-24 11:51 8.48651 79.80755 26137 ft 429 kts 351°
2026-04-24 11:51 8.51593 79.80193 26432 ft 431 kts 351°
2026-04-24 11:52 8.54551 79.79623 26701 ft 434 kts 350°
2026-04-24 11:52 8.57527 79.79048 26952 ft 437 kts 351°
2026-04-24 11:52 8.60520 79.78474 27180 ft 441 kts 351°
2026-04-24 11:52 8.63549 79.77897 27422 ft 444 kts 351°
2026-04-24 11:53 8.66170 79.77399 27647 ft 446 kts 351°
2026-04-24 11:53 8.69301 79.76806 27927 ft 448 kts 351°
2026-04-24 11:53 8.72374 79.76227 28199 ft 450 kts 351°
2026-04-24 11:53 8.75462 79.75643 28476 ft 453 kts 351°
2026-04-24 11:54 8.78559 79.75054 28754 ft 455 kts 351°
2026-04-24 11:54 8.81682 79.74457 29026 ft 457 kts 351°
2026-04-24 11:54 8.84813 79.73860 29297 ft 459 kts 351°
2026-04-24 11:54 8.87961 79.73254 29573 ft 462 kts 351°
2026-04-24 11:55 8.91125 79.72648 29839 ft 464 kts 351°
2026-04-24 11:55 8.94307 79.72040 30085 ft 465 kts 351°
2026-04-24 11:55 8.97487 79.71431 30385 ft 465 kts 351°
2026-04-24 11:55 9.00670 79.70819 30695 ft 465 kts 349°
2026-04-24 11:56 9.03846 79.70208 31017 ft 465 kts 349°
2026-04-24 11:56 9.07023 79.69599 31295 ft 466 kts 350°
2026-04-24 11:56 9.10193 79.69018 31614 ft 465 kts 350°
2026-04-24 11:56 9.13376 79.68458 31970 ft 464 kts 350°
2026-04-24 11:57 9.16558 79.67909 32328 ft 463 kts 349°
2026-04-24 11:57 9.19736 79.67359 32660 ft 463 kts 349°
2026-04-24 11:57 9.22910 79.66806 33060 ft 461 kts 349°
2026-04-24 11:57 9.26060 79.66255 33467 ft 459 kts 348°
2026-04-24 11:58 9.29205 79.65701 33748 ft 459 kts 348°
2026-04-24 11:58 9.32302 79.65154 33790 ft 457 kts 349°
2026-04-24 11:58 9.38567 79.64037 33789 ft 457 kts 349°
2026-04-24 11:59 9.44836 79.62923 33794 ft 457 kts 349°
2026-04-24 11:59 9.51105 79.61819 33794 ft 457 kts 349°
2026-04-24 12:00 9.57372 79.60718 33800 ft 457 kts 349°
2026-04-24 12:00 9.63642 79.59604 33800 ft 457 kts 349°
2026-04-24 12:01 9.69915 79.58489 33795 ft 458 kts 350°
2026-04-24 12:01 9.76204 79.57377 33782 ft 459 kts 350°
2026-04-24 12:02 9.82510 79.56260 33784 ft 460 kts 350°
2026-04-24 12:02 9.88828 79.55139 33786 ft 461 kts 350°
2026-04-24 12:03 9.95153 79.54011 33791 ft 462 kts 350°
2026-04-24 12:03 10.01475 79.52889 33797 ft 462 kts 350°
2026-04-24 12:04 10.07816 79.51768 33781 ft 463 kts 349°
2026-04-24 12:04 10.14188 79.50638 33776 ft 466 kts 349°
2026-04-24 12:05 10.20588 79.49495 33779 ft 468 kts 349°
2026-04-24 12:05 10.26840 79.48383 33784 ft 469 kts 349°
2026-04-24 12:06 10.39696 79.46098 33797 ft 470 kts 349°
2026-04-24 12:07 10.46145 79.44941 33795 ft 471 kts 347°
2026-04-24 12:07 10.52608 79.43789 33791 ft 472 kts 347°
2026-04-24 12:08 10.59041 79.42648 33790 ft 473 kts 347°
2026-04-24 12:08 10.65529 79.41491 33780 ft 474 kts 347°
2026-04-24 12:09 10.72038 79.40326 33775 ft 476 kts 347°
2026-04-24 12:09 10.78563 79.39163 33780 ft 477 kts 347°
2026-04-24 12:10 10.85106 79.37997 33786 ft 478 kts 347°
2026-04-24 12:11 10.94938 79.36243 33788 ft 478 kts 347°
2026-04-24 12:11 11.01498 79.35070 33794 ft 479 kts 347°
2026-04-24 12:12 11.08037 79.33901 33560 ft 472 kts 347°
2026-04-24 12:12 11.11253 79.33329 33313 ft 466 kts 347°
2026-04-24 12:12 11.14435 79.32760 33068 ft 463 kts 346°
2026-04-24 12:12 11.17598 79.32193 32816 ft 460 kts 346°
2026-04-24 12:13 11.20742 79.31630 32562 ft 457 kts 346°
2026-04-24 12:13 11.23868 79.31070 32322 ft 455 kts 346°
2026-04-24 12:13 11.26977 79.30512 32079 ft 452 kts 346°
2026-04-24 12:13 11.30069 79.29957 31837 ft 450 kts 346°
2026-04-24 12:14 11.33143 79.29403 31597 ft 447 kts 346°
2026-04-24 12:14 11.36202 79.28855 31364 ft 445 kts 346°
2026-04-24 12:14 11.39245 79.28312 31124 ft 443 kts 346°
2026-04-24 12:14 11.42264 79.27772 30882 ft 440 kts 346°
2026-04-24 12:15 11.45275 79.27235 30653 ft 438 kts 346°
2026-04-24 12:15 11.48269 79.26698 30422 ft 436 kts 346°
2026-04-24 12:15 11.51247 79.26163 30201 ft 433 kts 346°
2026-04-24 12:15 11.54211 79.25632 29970 ft 431 kts 346°
2026-04-24 12:16 11.57167 79.25140 29736 ft 431 kts 350°
2026-04-24 12:16 11.60166 79.25028 29464 ft 433 kts 359°
2026-04-24 12:16 11.63161 79.25310 29199 ft 432 kts
2026-04-24 12:16 11.66144 79.25633 28936 ft 430 kts
2026-04-24 12:17 11.68113 79.25845 28758 ft 428 kts
2026-04-24 12:17 11.71070 79.26156 28500 ft 426 kts
2026-04-24 12:17 11.74010 79.26462 28244 ft 424 kts
2026-04-24 12:17 11.76934 79.26765 27990 ft 421 kts
2026-04-24 12:18 11.79842 79.27067 27744 ft 419 kts
2026-04-24 12:18 11.82732 79.27369 27495 ft 416 kts
2026-04-24 12:18 11.85604 79.27671 27246 ft 415 kts
2026-04-24 12:18 11.88469 79.27972 27005 ft 413 kts
2026-04-24 12:19 11.91309 79.28377 26761 ft 412 kts 10°
2026-04-24 12:19 11.94105 79.28988 26531 ft 410 kts 11°
2026-04-24 12:19 11.96882 79.29627 26284 ft 408 kts 12°
2026-04-24 12:19 11.99639 79.30278 26044 ft 406 kts 12°
2026-04-24 12:20 12.02380 79.30931 25811 ft 403 kts 12°
2026-04-24 12:20 12.05104 79.31575 25585 ft 400 kts 12°
2026-04-24 12:20 12.07804 79.32206 25222 ft 397 kts 12°
2026-04-24 12:20 12.10501 79.32831 24785 ft 397 kts 12°
2026-04-24 12:21 12.13195 79.33449 24357 ft 398 kts 12°
2026-04-24 12:21 12.15897 79.34067 23902 ft 398 kts 13°
2026-04-24 12:21 12.18604 79.34689 23443 ft 399 kts 13°
2026-04-24 12:21 12.21314 79.35316 22926 ft 399 kts 14°
2026-04-24 12:22 12.24020 79.35943 22447 ft 398 kts 13°
2026-04-24 12:22 12.26716 79.36570 21989 ft 396 kts 13°
2026-04-24 12:22 12.29399 79.37195 21523 ft 395 kts 14°
2026-04-24 12:22 12.32065 79.37813 21095 ft 392 kts 14°
2026-04-24 12:23 12.34719 79.38428 20664 ft 389 kts 14°
2026-04-24 12:23 12.37348 79.39038 20167 ft 388 kts 14°
2026-04-24 12:23 12.39963 79.39645 19796 ft 383 kts 14°
2026-04-24 12:23 12.42572 79.40251 19270 ft 384 kts 14°
2026-04-24 12:24 12.45221 79.40865 18614 ft 395 kts 14°
2026-04-24 12:24 12.47919 79.41491 17233 ft 403 kts 14°
2026-04-24 12:24 12.50590 79.42392 15684 ft 407 kts 27°
2026-04-24 12:24 12.52901 79.44033 14336 ft 404 kts 45°
2026-04-24 12:25 12.54791 79.46116 13469 ft 390 kts 49°
2026-04-24 12:25 12.56526 79.48108 13232 ft 360 kts 48°
2026-04-24 12:25 12.58118 79.49945 13079 ft 331 kts 49°
2026-04-24 12:25 12.59585 79.51640 12923 ft 307 kts 49°
2026-04-24 12:26 12.60974 79.53241 12452 ft 297 kts 49°
2026-04-24 12:26 12.62337 79.54807 11864 ft 292 kts 49°
2026-04-24 12:26 12.63696 79.56360 10967 ft 298 kts 49°
2026-04-24 12:26 12.65117 79.57970 9819 ft 311 kts 49°
2026-04-24 12:27 12.66585 79.59617 8530 ft 323 kts 49°
2026-04-24 12:27 12.68128 79.61351 7136 ft 335 kts 49°
2026-04-24 12:27 12.69719 79.63143 5730 ft 345 kts 49°
2026-04-24 12:27 12.71373 79.64976 4733 ft 342 kts 49°
2026-04-24 12:28 12.72951 79.66712 4327 ft 323 kts 50°
2026-04-24 12:28 12.74428 79.68319 4155 ft 297 kts 49°
2026-04-24 12:28 12.75796 79.69785 4027 ft 273 kts 48°
2026-04-24 12:28 12.77046 79.71127 4008 ft 248 kts 48°
2026-04-24 12:29 12.78171 79.72322 4022 ft 226 kts 49°
2026-04-24 12:29 12.79229 79.73431 4014 ft 209 kts 48°
2026-04-24 12:29 12.80205 79.74457 4008 ft 193 kts 48°
2026-04-24 12:29 12.81104 79.75405 4002 ft 182 kts 48°
2026-04-24 12:30 12.82062 79.76405 4048 ft 213 kts 50°
2026-04-24 12:30 12.83147 79.77541 4040 ft 229 kts 47°
2026-04-24 12:30 12.84259 79.78717 3923 ft 230 kts 47°
2026-04-24 12:30 12.85269 79.79971 3617 ft 225 kts 69°
2026-04-24 12:31 12.85716 79.81484 3321 ft 222 kts 76°
2026-04-24 12:31 12.86242 79.82986 2978 ft 225 kts 71°
2026-04-24 12:31 12.86814 79.84485 2643 ft 226 kts 72°
2026-04-24 12:31 12.87382 79.85978 2387 ft 224 kts 72°
2026-04-24 12:32 12.87945 79.87471 2171 ft 223 kts 72°
2026-04-24 12:32 12.88499 79.88940 2351 ft 225 kts 72°
2026-04-24 12:32 12.89062 79.90437 2370 ft 221 kts 72°
2026-04-24 12:32 12.89601 79.91861 2359 ft 207 kts 73°
2026-04-24 12:33 12.90108 79.93206 2373 ft 197 kts 73°
2026-04-24 12:33 12.90601 79.94519 2386 ft 197 kts 71°
2026-04-24 12:33 12.91072 79.95770 2385 ft 195 kts 72°
2026-04-24 12:33 12.91559 79.97065 2373 ft 196 kts 72°
2026-04-24 12:34 12.92049 79.98364 2371 ft 193 kts 71°
2026-04-24 12:34 12.92527 79.99633 2076 ft 191 kts 73°
2026-04-24 12:34 12.93004 80.00900 1854 ft 191 kts 72°
2026-04-24 12:34 12.93483 80.02175 1805 ft 190 kts 71°
2026-04-24 12:35 12.93959 80.03440 1800 ft 191 kts 73°
2026-04-24 12:35 12.94436 80.04707 1816 ft 191 kts 73°
2026-04-24 12:35 12.94915 80.05982 1777 ft 192 kts 72°
2026-04-24 12:35 12.95393 80.07250 1599 ft 189 kts 75°
2026-04-24 12:36 12.95867 80.08513 1375 ft 188 kts 74°
2026-04-24 12:36 12.96337 80.09762 1138 ft 188 kts 72°
2026-04-24 12:36 12.96806 80.11009 935 ft 184 kts 72°
2026-04-24 12:36 12.97256 80.12203 703 ft 176 kts 73°
2026-04-24 12:37 12.97674 80.13312 511 ft 160 kts 77°
2026-04-24 12:37 12.98066 80.14359 298 ft 155 kts 72°
2026-04-24 12:37 12.98453 80.15389 93 ft 155 kts 73°
2026-04-24 12:37 12.98810 80.16343 51 ft 122 kts 68°
2026-04-24 12:38 12.99048 80.16986 54 ft 73 kts 69°
2026-04-24 12:38 12.99172 80.17312 53 ft 32 kts 69°
2026-04-24 12:38 12.99177 80.17461 50 ft 11 kts 104°
2026-04-24 12:39 12.99075 80.17539 52 ft 7 kts 238°
2026-04-24 12:39 12.99068 80.17524 53 ft 2 kts 246°
2026-04-24 12:39 12.99063 80.17513 56 ft 1 kts 247°